{"data":{"norad_id":55674,"epoch":"2026-09-20T14:23:08.263680Z","epoch_age_seconds":94510,"freshness":"FRESH","line1":"1 55674U 23021AY  26263.59940120  .00003433  00000+0  29526-3 0  9993","line2":"2 55674  70.0021  32.8763 0002760 265.7105  94.3739 14.98349748198481","mean_motion":14.98349748,"eccentricity":0.000276,"inclination_deg":70.0021,"raan_deg":32.8763,"arg_perigee_deg":265.7105,"mean_anomaly_deg":94.3739,"bstar":0.00029526,"rev_number":19848,"period_min":96.10573245146,"perigee_km":570.07658617114,"apogee_km":573.91305893719,"semimajor_km":6950.1318225542,"source":"CELESTRAK","updated_at":"2026-09-21T09:00:33.310318Z"}}